Weather in Porzdni

Russia / Ivanovo Oblast     57°00′17″N   42°33′00″E
temp.,
°C
wind,
m/s
gust,
m/s
humid.,
%
clouds,
%
prec.,
mm/h
press.,
hPa
HPBL,
m
31 july, sat
sat3100:00+17s279620 0.0 1003150
03:00+16ssw269825 1.0 1002153
06:00+17wsw379641 0.4 1001241
09:00+22w477039 0.4 1002681
12:00+26wsw684769 0.6 10022162
15:00+27w693289 0.6 10022937
18:00+25w6103925 0.0 10031685
21:00+19wsw36572 0.0 1005118
1 august, sun
sun100:00+16sw37700 0.0 1006131
03:00+15wsw310780 0.0 1008226
06:00+17wsw3107417 0.0 1009374
09:00+23w585395 0.0 10101194
12:00+26wsw5741100 0.0 10101866
15:00+27wsw5839100 0.0 10102120
18:00+23nnw5754100 0.0 1010393
21:00+17sse41094100 1.0 1010240
2 august, mon
mon200:00+18sw41194100 1.6 1010294
03:00+17sw2596100 1.6 1010105
06:00+18wsw2493100 0.0 1010126
09:00+22ssw2477100 0.1 1011340
12:00+21ne0079100 0.3 1011161
15:00+25e456759 1.2 1009552
18:00+22e4787100 1.1 1006172
21:00+19e4898100 7.3 1006176
3 august, tue
tue300:00+19sse4139475 0.1 1005348
03:00+18s5169461 0.8 1004480
06:00+18ssw2795100 0.3 1003257
09:00+21sw368885 1.1 1003524
12:00+25sw4661100 0.0 10041345
15:00+22wsw4875100 0.6 1004484
18:00+20sw488791 1.4 1005642
21:00+17wnw379798 3.6 1006252
4 august, wed
wed400:00+15wnw4996100 0.1 1008395
03:00+14wsw36978 1.5 1009189
06:00+14sw3795100 0.0 1011202
09:00+17wsw358195 0.0 1012315
12:00+24w454422 0.0 10122297
15:00+22wnw355149 0.0 1013386
18:00+20w4860100 0.0 1014328
21:00+16nnw227519 0.0 101518